Regional Weather Roundup
Issued by NWS

Home | Current Version | Previous Version | Graphics & Text | Print | Product List | Glossary On
Versions: 1 2 3 4 5 6 7 8 9 10 11 12 13 14 15 16 17 18 19 20 21 22 23 24 25 26 27 28 29 30 31 32 33 34 35 36 37 38 39 40 41 42 43 44 45 46 47 48 49 50
000
ASUS45 KCYS 110710
RWRWY

WYOMING REGIONAL WEATHER ROUNDUP
NATIONAL WEATHER SERVICE CHEYENNE WY
1200 AM MST THU FEB 11 2016

NOTE:  "FAIR" INDICATES FEW OR NO CLOUDS BELOW 12,000 FEET
WITH NO SIGNIFICANT WEATHER AND/OR OBSTRUCTIONS TO VISIBILITY.

WYZ001-110800-
YELLOWSTONE NATIONAL PARK

CITY           SKY/WX    TMP DP  RH WIND       PRES   REMARKS
LK YELLOWSTONE   N/A     22  18  85 CALM      30.33F
W YELLOWSTONE  NOT AVBL

$$
WYZ002>013-054>058-071-098>099-110800-
NORTHERN WYOMING

CITY           SKY/WX    TMP DP  RH WIND       PRES   REMARKS
JACKSON        FAIR      10   9  92 N3        30.36S
CODY           FAIR      48  18  29 W10       30.12F
GREYBULL       FAIR      31  25  78 N3        30.13F
WORLAND        FAIR      25  23  92 S3        30.13F
SHERIDAN       FAIR      33  25  72 CALM      30.06F
BUFFALO        FAIR      43  22  43 S6        30.07F
GILLETTE       FAIR      36  26  67 CALM      30.06F
HULETT         FAIR      36  28  75 SW10      30.06F WCI  28
NEWCASTLE      FAIR      30  23  74 CALM      30.11S

$$
WYZ014>020-022>026-101>103-110800-
CENTRAL WYOMING

CITY           SKY/WX    TMP DP  RH WIND       PRES   REMARKS
BIG PINEY      FAIR      19  14  81 E7        30.33S WCI  10
PINEDALE         N/A     18  16  93 W5        30.34S WCI  11
DUBOIS         FAIR      36  12  38 NW21      30.23S WCI  24
LANDER         FAIR      32  18  56 SE6       30.18F WCI  26
RIVERTON       FAIR      36  18  48 SW6       30.19F WCI  31
CASPER         FAIR      36  21  54 SW16      30.16S WCI  26
DOUGLAS        FAIR      28  22  78 N5          N/A  WCI  23

$$
WYZ021-027>030-104>119-110800-
SOUTHERN WYOMING

CITY           SKY/WX    TMP DP  RH WIND       PRES   REMARKS
EVANSTON       FAIR      28  14  55 S7        30.39R WCI  21
FORT BRIDGER   SUNNY     34  16  47 W18       30.38S WCI  23
ROCK SPRINGS   FAIR      32  17  54 SW12      30.32F WCI  23
DIXON          FAIR      16   9  74 E5        30.38S WCI   8
RAWLINS        FAIR      33  17  51 W20G28    30.26S WCI  21
SARATOGA       FAIR      25  14  63 SE9       30.31S WCI  15
LARAMIE        FAIR      32  17  54 W14       30.24R WCI  22
CHEYENNE       FAIR      39  15  37 NW16G24   30.18F WCI  30
TORRINGTON     FAIR      32  23  69 W6        30.13S WCI  26
PINE BLUFFS    FAIR      30  23  74 W9        30.18S WCI  22

$$



USA.gov is the U.S. government's official web portal to all federal, state and local government web resources and services.